Regional Weather Roundup
Issued by NWS

Home | Current Version | Previous Version | Text Only | Print | Product List | Glossary Off
Versions: 1 2 3 4 5 6 7 8 9 10 11 12 13 14 15 16 17 18 19 20 21 22 23 24 25 26 27 28 29 30 31 32 33 34 35 36 37 38 39 40 41 42 43 44 45 46 47 48 49 50

000
ASUS44 KMEG 281810
RWRTN
TENNESSEE HOURLY STATE WEATHER ROUNDUP
NATIONAL WEATHER SERVICE MEMPHIS TN
100 PM CDT TUE JUL 28 2015

TNZ002-004-019-021-049-052-054-088>092-281900-
WEST TENNESSEE

CITY           SKY/WX    TMP DP  RH WIND       PRES   REMARKS
MEMPHIS INTL   MOSUNNY   95  76  53 W10G18    30.01S HX 108
NWS MEMPHIS      N/A     95 N/A N/A MISG        N/A
JACKSON        MOSUNNY   94  75  54 W10       30.01S HX 105
DYERSBURG        N/A    N/A N/A N/A MISG        N/A
PARIS          MOSUNNY   90  75  62 SW7       30.02S HX 100
LEXINGTON      MOSUNNY   93  75  55 W7        30.00F HX 104
$$

TNZ008-025-027-028-033-062-065-066-281900-
NORTH MIDDLE TENNESSEE

CITY           SKY/WX    TMP DP  RH WIND       PRES   REMARKS
NASHVILLE      MOSUNNY   93  72  50 W8        30.00F HX 101
CLARKSVILLE    MOSUNNY   92  75  57 SW8       30.00S HX 103
SMYRNA         MOSUNNY   90  75  61 VRB5      30.00F HX 100
COOKEVILLE     SUNNY     95  79  59 VRB3      30.01F HX 112
CROSSVILLE     MOSUNNY   88  70  55 W8        30.08F HX  93
$$

TNZ061-075-076-078-094-096-097-281900-
SOUTH MIDDLE TENNESSEE

CITY           SKY/WX    TMP DP  RH WIND       PRES   REMARKS
FAYETTEVILLE     N/A     90  70  51 W5        30.03F HX  95
TULLAHOMA      MOSUNNY   91  73  55 W5        30.05S HX 100
WINCHESTER     PTSUNNY   86  75  70 N5        30.04S HX  95
MCMINNVILLE    SUNNY     86  77  74 SW6       30.04F HX  97
SHELBYVILLE    MOSUNNY   95  77  55 NW9       30.02F HX 109
$$

TNZ017-018-042-046-047-281900-
NORTHEAST TENNESSEE

CITY           SKY/WX    TMP DP  RH WIND       PRES   REMARKS
TRI CITIES     MOSUNNY   88  70  55 VRB3      30.04F HX  93
ELIZABETHTON   CLEAR     88  68  51 VRB5      30.04F HX  91
$$

TNZ012-013-036-069-073-074-281900-
CENTRAL EAST TENNESSEE

CITY           SKY/WX    TMP DP  RH WIND       PRES   REMARKS
KNOXVILLE      PTSUNNY   91  76  61 W6        30.01F HX 103
OAK RIDGE      PTSUNNY   91  72  53 VRB5      30.02F HX  98
GATLINBURG       N/A     93  68  43 W3        30.00F HX  97
MORRISTOWN       N/A     84  73  70 NE9       30.04F HX  91
$$

TNZ083-085-099-281900-
SOUTHEAST TENNESSEE

CITY           SKY/WX    TMP DP  RH WIND       PRES   REMARKS
CHATTANOOGA    PTSUNNY   91  73  55 W6        30.00F HX  99
$$

SKY/WX REPORTED AS FAIR MEANS FEW OR NO CLOUDS BELOW
12 THOUSAND FEET.



USA.gov is the U.S. government's official web portal to all federal, state and local government web resources and services.